<< Return to Weather Page
Fresno, CA
on Monday, March 4, 2013

Monday
Previous Day Next Day
Daily Summary
 ActualAverageRecord
Temperature
Mean Temperature - 55 °F  
Max Temperature 71 °F 66 °F 84 °F (1929)
Min Temperature 45 °F 44 °F 30 °F (1966)
Degree Days
Heating Degree Days 7    
Month to date heating degree days 15  
Since 1 July heating degree days 1607  
Cooling Degree Days 0    
Month to date cooling degree days 0  
Year to date cooling degree days 0  
Growing Degree Days8 (Base - )  
Moisture
Dew Point 45 °F   
Average Humidity 61    
Maximum Humidity 86    
Minimum Humidity 36    
Precipitation
Precipitation 0.00 in 0.08 in 0.98 in (1978)
Month to date precipitation T 0.29  
Year to date precipitation 1.47 4.51  
Snow
Snow 0.00 in - - ()
Month to date snowfall 0.0  
Since 1 July snowfall 0.0  
Snow Depth 0.00 in   
Wind
Wind Speed 3 mph   
Max Wind Speed 10 mph   
Max Gust Speed -   
Visibility 10 miles   
Events     

Key: T is trace of precipitation, MM is missing value
Source: NWS Daily Summary
Time(PST)TemperatureDew PointHumidity Pressure Visibility Wind DirectionWind SpeedGust SpeedPrecipitationEvents Conditions
12:53 AM 53.1 °F 46.0 °F 77% 30.05 in 10.0 miles NW 4.6 mph - N/A   Clear
1:53 AM 52.0 °F 46.0 °F 80% 30.05 in 10.0 miles NW 6.9 mph - N/A   Clear
2:53 AM 50.0 °F 45.0 °F 83% 30.04 in 10.0 miles WNW 4.6 mph - N/A   Clear
3:53 AM 48.0 °F 44.1 °F 86% 30.06 in 10.0 miles WNW 8.1 mph - N/A   Clear
4:53 AM 48.0 °F 44.1 °F 86% 30.07 in 10.0 miles NW 8.1 mph - N/A   Clear
5:53 AM 46.9 °F 43.0 °F 86% 30.07 in 9.0 miles North 3.5 mph - N/A   Clear
6:53 AM 46.0 °F 43.0 °F 89% 30.08 in 8.0 miles Calm Calm - N/A   Clear
7:53 AM 48.9 °F 45.0 °F 86% 30.10 in 9.0 miles WNW 3.5 mph - N/A   Clear
8:53 AM 54.0 °F 46.0 °F 75% 30.12 in 10.0 miles WNW 6.9 mph - N/A   Clear
9:53 AM 57.9 °F 46.9 °F 67% 30.13 in 10.0 miles Calm Calm - N/A   Partly Cloudy
10:53 AM 62.1 °F 45.0 °F 53% 30.13 in 10.0 miles Calm Calm - N/A   Partly Cloudy
11:53 AM 64.9 °F 46.0 °F 50% 30.12 in 10.0 miles Calm Calm - N/A   Partly Cloudy
12:53 PM 66.9 °F 45.0 °F 45% 30.08 in 10.0 miles West 4.6 mph - N/A   Partly Cloudy
1:53 PM 69.1 °F 44.1 °F 40% 30.06 in 10.0 miles NW 3.5 mph - N/A   Partly Cloudy
2:53 PM 70.0 °F 44.1 °F 39% 30.05 in 10.0 miles WNW 5.8 mph - N/A   Partly Cloudy
3:53 PM 70.0 °F 43.0 °F 38% 30.04 in 10.0 miles NW 4.6 mph - N/A   Partly Cloudy
4:53 PM 70.0 °F 41.0 °F 35% 30.04 in 10.0 miles Calm Calm - N/A   Scattered Clouds
5:53 PM 66.9 °F 46.0 °F 47% 30.02 in 10.0 miles NE 5.8 mph - N/A   Partly Cloudy
6:53 PM 63.0 °F 45.0 °F 52% 30.01 in 10.0 miles Calm Calm - N/A   Clear
7:53 PM 62.1 °F 46.0 °F 56% 30.02 in 10.0 miles Calm Calm - N/A   Clear
8:53 PM 60.1 °F 46.9 °F 62% 30.04 in 10.0 miles Calm Calm - N/A   Clear
9:53 PM 55.9 °F 46.0 °F 69% 30.05 in 10.0 miles NE 4.6 mph - N/A   Clear
11:53 PM 53.1 °F 44.1 °F 71% 30.05 in 10.0 miles Calm Calm - N/A   Partly Cloudy

Astronomy

Sunrise: 06:25 AM (PST) Moon Rise: 12:33 AM (PST) 3 / 4
Sunset: 05:56 PM (PST) Moon Set: 10:49 AM (PST) 3 / 4
Moon Phase
Mar. 04 Mar. 04 Mar. 11 Mar. 19 Mar. 27

Powered by the Weather Underground, Inc.